Location: *
(46.3500°N, 10.9000°E)
Time: 21:56:53
(UTC+00:00)

Explorer 7 - Pass Details

Date: 20 April 2021
Orbit: 484 x 677 km, 50.3° (Epoch: 05 May)

Event Time Altitude Azimuth Distance (km) Brightness Sun altitude
Rises 22:15:06 0° 283° (WNW) 2,738 10.8 -30.3°
Reaches altitude 10° 22:17:20 10° 289° (WNW) 1,875 9.9 -30.4°
Enters shadow 22:18:54 21° 297° (WNW) 1,312 9.1 -30.4°
Maximum altitude 22:21:32 51° 6° (N) 754 - -30.6°
Drops below altitude 10° 22:26:00 10° 83° (E) 1,995 - -30.8°
Sets 22:28:27 0° 88° (E) 2,932 - -30.9°
